Flag for U.S.A. Weather past 2 weeks in Mansfield, Texas, U.S.A.

Now
53 °F

Clear.


Feels Like: 51 °F
Forecast: 52 / 67 °F
Wind: 8 mph from South

Location: Burleson-Rendon

Current Time: Jan 29, 2015 at 4:41:41 AM

Latest Report: Jan 29, 2015 at 4:15 AM


Visibility: 10 mi

Pressure: 30.09 "Hg

Humidity: 63%

Dew point: 41 °F

Location of MansfieldLocation

Historic Weather in Mansfield — Graph

°F

Mansfield temperature yesterday

Maximum temperature yesterday: 81 °F (at 2:50 PM)
Minimum temperature yesterday: 47 °F (at 5:55 AM)
Average temperature yesterday: 62 °F

Past Weeks' High & Low Weather Summary

 TemperatureHumidityPressure
High81 °F (Jan 28, 2:50 PM)100% (Jan 20, 7:53 AM)30.41 "Hg (Jan 20, 7:53 AM)
Low27 °F (Jan 18, 6:46 AM)17% (Jan 18, 2:50 PM)29.92 "Hg (Jan 20, 5:15 AM)
Average48 °F63%30.16 "Hg
* Reported Jan 14 3:15 AM — Jan 29 3:35 AM, Mansfield, Weather by CustomWeather, © 2014

Note: Actual official high and low records may vary slightly from our data, if they occured in-between our weather recording intervals... More about our weather records

Advertising

Mansfield weather history for previous 24 hours

 ConditionsComfort  
Time TempWeatherWind HumidityBarometerVisibility
3:35 AM
Jan 29
54 °FClear.6 mph62%30.10 "Hg10 mi
3:15 AM56 °FClear.5 mph55%30.10 "Hg10 mi
2:55 AM56 °FClear.6 mph56%30.10 "Hg10 mi
2:35 AM57 °FPassing clouds.3 mph53%30.10 "Hg10 mi
2:15 AM60 °FPassing clouds.6 mph47%30.10 "Hg10 mi
1:55 AM61 °FPassing clouds.No wind47%30.10 "Hg10 mi
1:35 AM62 °FOvercast.8 mph45%30.08 "Hg10 mi
1:15 AM62 °FOvercast.9 mph45%30.07 "Hg10 mi
12:55 AM62 °FPassing clouds.9 mph44%30.07 "Hg10 mi
12:35 AM63 °FPassing clouds.9 mph43%30.07 "Hg10 mi
12:15 AM63 °FPassing clouds.9 mph43%30.07 "Hg10 mi
11:55 PM
Jan 28
64 °FPassing clouds.9 mph41%30.07 "Hg10 mi
11:35 PM64 °FClear.13 mph40%30.07 "Hg10 mi
11:15 PM65 °FClear.13 mph39%30.06 "Hg10 mi
10:55 PM66 °FClear.13 mph37%30.05 "Hg10 mi
10:15 PM67 °FClear.15 mph35%30.04 "Hg10 mi
9:55 PM68 °FClear.17 mph34%30.03 "Hg10 mi
9:15 PM70 °FClear.16 mph32%30.02 "Hg10 mi
8:55 PM70 °FClear.15 mph32%30.02 "Hg10 mi
8:35 PM70 °FClear.16 mph31%30.02 "Hg10 mi
8:15 PM70 °FClear.12 mph33%30.02 "Hg10 mi
7:55 PM71 °FClear.14 mph33%30.02 "Hg10 mi
7:35 PM71 °FClear.10 mph34%30.02 "Hg10 mi
7:15 PM70 °FClear.12 mph35%30.02 "Hg10 mi
5:48 PM75 °FSunny.12 mph29%29.99 "Hg20 mi
4:46 PM81 °FSunny.17 mph20%30.00 "Hg20 mi
3:47 PM81 °FSunny.12 mph20%30.00 "Hg20 mi
2:50 PM81 °FSunny.21 mph23%30.01 "Hg20 mi
1:47 PM79 °FSunny.15 mph26%30.02 "Hg20 mi
12:52 PM79 °FSunny.13 mph28%30.07 "Hg20 mi
11:47 AM75 °FSunny.9 mph27%30.10 "Hg20 mi
10:49 AM72 °FSunny.8 mph31%30.13 "Hg20 mi
9:57 AM66 °FSunny.8 mph40%30.13 "Hg20 mi
8:53 AM57 °FSunny.8 mph59%30.13 "Hg20 mi
7:53 AM48 °FSunny.No wind71%30.12 "Hg20 mi
6:50 AM52 °FClear.5 mph62%30.10 "Hg20 mi
6:35 AM52 °FClear.6 mph66%30.10 "Hg10 mi
6:15 AM52 °FClear.No wind64%30.10 "Hg10 mi
5:55 AM47 °FClear.No wind73%30.09 "Hg10 mi
5:35 AM48 °FClear.5 mph69%30.09 "Hg10 mi
5:15 AM53 °FClear.5 mph61%30.09 "Hg10 mi
4:55 AM52 °FClear.6 mph63%30.09 "Hg10 mi
4:35 AM49 °FClear.5 mph69%30.09 "Hg10 mi
4:15 AM51 °FClear.No wind66%30.09 "Hg10 mi
Weather by CustomWeather, © 2014

See weather overviewHow to use our weather pages